Ephrata, WA

11:19 PM PDT on April 20, 2018 (GMT -0700)
Ephrata Municipal

Weather History for KEPH - February, 2013

Change the Weather History Date:

Sunday, February 17, 2013

  Actual Average Record
Temperature  
Mean Temperature 41 °F 34 °F  
Max Temperature 51 °F 43 °F 62 °F (1977)
Min Temperature 30 °F 26 °F 3 °F (1956)
Degree Days  
Heating Degree Days 24 31  
Month to date heating degree days 496 547  
Since 1 July heating degree days 3932 4255  
Cooling Degree Days 0 0  
Month to date cooling degree days 0 0  
Year to date cooling degree days 0 0  
Moisture  
Dew Point 24 °F    
Average Humidity 53    
Maximum Humidity 78    
Minimum Humidity 28    
Precipitation  
Precipitation 0.00 in 0.03 in 0.73 in (1994)
Month to date precipitation T 0.44  
Year to date precipitation 0.19 1.35  
Sea Level Pressure  
Sea Level Pressure 30.08 in    
Wind  
Wind Speed 5 mph (West)    
Max Wind Speed 28 mph    
Max Gust Speed 32 mph    
Visibility 10 miles    
Events      
T = Trace of Precipitation, MM = Missing Value Source: NWS Daily Summary

Daily Weather History Graph

Daily Weather History Graph

Search for Another Location

Airport or City:

Astronomy

Feb. 17, 2013 Rise Set
Actual Time 6:59 AM PST 5:25 PM PST
Civil Twilight 6:27 AM PST 5:57 PM PST
Nautical Twilight 5:52 AM PST 6:32 PM PST
Astronomical Twilight 5:16 AM PST 7:08 PM PST
Moon 10:23 AM PST (2/17) 12:57 AM PST (2/17)
Length of Visible Light 11h 29m
Length of Day
10h 26m
Waxing Crescent, 50% of the Moon is Illuminated
Feb 17
Waxing Crescent
Feb 17
First Quarter
Feb 25
Full
Mar 4
Last Quarter
Mar 11
New

Hourly Weather History & Observations

Time (PST) Temp. Windchill Dew Point Humidity Pressure Visibility Wind Dir Wind Speed Gust Speed Precip Events Conditions
12:53 AM 37.9 °F 32.1 °F 24.1 °F 57% 30.03 in 10.0 mi WSW 8.1 mph - N/A   Clear
1:53 AM 34.0 °F 28.0 °F 26.1 °F 73% 30.04 in 10.0 mi SW 6.9 mph - N/A   Clear
2:53 AM 39.0 °F 34.0 °F 25.0 °F 57% 30.04 in 10.0 mi SW 6.9 mph - N/A   Clear
3:53 AM 41.0 °F 36.4 °F 23.0 °F 49% 30.04 in 10.0 mi West 6.9 mph 16.1 mph N/A   Clear
4:53 AM 41.0 °F 36.4 °F 23.0 °F 49% 30.06 in 10.0 mi Variable 6.9 mph - N/A   Clear
5:53 AM 39.9 °F 36.7 °F 23.0 °F 51% 30.07 in 10.0 mi Variable 4.6 mph 18.4 mph N/A   Clear
6:53 AM 33.1 °F 30.0 °F 24.1 °F 70% 30.09 in 10.0 mi Variable 3.5 mph - N/A   Clear
7:53 AM 34.0 °F 28.0 °F 26.1 °F 73% 30.10 in 10.0 mi SSW 6.9 mph - N/A   Clear
8:53 AM 39.9 °F 35.8 °F 27.0 °F 60% 30.10 in 10.0 mi SSW 5.8 mph - N/A   Clear
9:53 AM 46.0 °F 43.9 °F 25.0 °F 44% 30.11 in 10.0 mi WSW 4.6 mph - N/A   Clear
10:53 AM 48.0 °F - 25.0 °F 41% 30.12 in 10.0 mi Calm Calm - N/A   Clear
11:53 AM 50.0 °F - 24.1 °F 36% 30.10 in 10.0 mi NNW 8.1 mph - N/A   Clear
12:53 PM 51.1 °F - 21.0 °F 31% 30.09 in 10.0 mi North 6.9 mph - N/A   Partly Cloudy
1:53 PM 51.1 °F - 19.9 °F 29% 30.09 in 10.0 mi NW 5.8 mph - N/A   Overcast
2:53 PM 50.0 °F - 21.9 °F 33% 30.08 in 10.0 mi Calm Calm - N/A   Overcast
3:05 PM 48.2 °F - 23.0 °F 37% 30.06 in 10.0 mi South 3.5 mph 32.2 mph N/A   Squalls
3:53 PM 48.0 °F - 23.0 °F 37% 30.08 in 10.0 mi SE 3.5 mph - N/A   Overcast
5:53 PM 45.0 °F - 25.0 °F 46% 30.08 in 10.0 mi Calm Calm - N/A   Overcast
6:53 PM 42.1 °F - 26.1 °F 53% 30.09 in 10.0 mi Calm Calm - N/A   Overcast
7:53 PM 36.0 °F 31.1 °F 26.1 °F 67% 30.09 in 10.0 mi NNE 5.8 mph - N/A   Mostly Cloudy
9:53 PM 33.1 °F 30.0 °F 24.1 °F 70% 30.09 in 10.0 mi NNW 3.5 mph - N/A   Clear
10:53 PM 30.9 °F 27.5 °F 24.1 °F 76% 30.10 in 10.0 mi NNE 3.5 mph - N/A   Clear
11:53 PM 32.0 °F 23.6 °F 25.0 °F 75% 30.09 in 10.0 mi North 10.4 mph - N/A   Clear